Beatrice, NE

7:56 PM CDT on March 28, 2017 (GMT -0500)
Beatrice Municipal

Weather History for KBIE - January, 2005

Change the Weather History Date:

Tuesday, January 11, 2005

  Actual Average Record
Temperature  
Mean Temperature 21 °F -  
Max Temperature 24 °F 28 °F 59 °F (2006)
Min Temperature 19 °F 9 °F -12 °F (1974)
Degree Days  
Heating Degree Days 44    
Moisture  
Dew Point 19 °F    
Average Humidity 94    
Maximum Humidity 100    
Minimum Humidity 86    
Precipitation  
Precipitation 0.00 in - - ()
Sea Level Pressure  
Sea Level Pressure 29.88 in    
Wind  
Wind Speed 7 mph (NNE)    
Max Wind Speed 13 mph    
Max Gust Speed -    
Visibility 4 miles    
Events Fog    
Averages and records for this station are not official NWS values.
T = Trace of Precipitation, MM = Missing Value Source: NWS Daily Summary

Daily Weather History Graph

Daily Weather History Graph

Search for Another Location

Airport or City:

Trip Planner

Search our weather history database for the weather conditions in past years. The results will help you decide how hot, cold, wet, or windy it might be!

Date:

Astronomy

Jan. 11, 2005 Rise Set
Actual Time 7:49 AM CST 5:21 PM CST
Civil Twilight 7:18 AM CST 5:51 PM CST
Nautical Twilight 6:45 AM CST 6:25 PM CST
Astronomical Twilight 6:12 AM CST 6:57 PM CST
Moon 9:13 AM CST (1/11) 6:53 PM CST (1/11)
Length of Visible Light 10h 32m
Length of Day
9h 32m
New Moon, 2% of the Moon is Illuminated
Jan 11
New Moon
Jan 17
First Quarter
Jan 25
Full
Feb 2
Last Quarter
Feb 8
New

Hourly Weather History & Observations

Time (CST) Temp. Windchill Dew Point Humidity Pressure Visibility Wind Dir Wind Speed Gust Speed Precip Events Conditions
12:34 AM 19.4 °F 10.4 °F 15.8 °F 86% 30.00 in 10.0 mi NNE 6.9 mph - N/A   Overcast
12:52 AM 19.4 °F 8.6 °F 15.8 °F 86% 30.01 in 10.0 mi NNE 9.2 mph - N/A   Overcast
1:10 AM 19.4 °F 9.5 °F 15.8 °F 86% 30.01 in 10.0 mi North 8.1 mph - N/A   Overcast
1:30 AM 19.4 °F 10.4 °F 15.8 °F 86% 30.01 in 10.0 mi North 6.9 mph - N/A   Overcast
1:50 AM 19.4 °F 8.6 °F 15.8 °F 86% 30.01 in 10.0 mi North 9.2 mph - N/A   Overcast
2:10 AM 19.4 °F 10.4 °F 15.8 °F 86% 30.00 in 10.0 mi North 6.9 mph - N/A   Overcast
2:30 AM 19.4 °F 9.5 °F 15.8 °F 86% 30.00 in 10.0 mi North 8.1 mph - N/A   Overcast
2:50 AM 19.4 °F 6.6 °F 15.8 °F 86% 30.01 in 10.0 mi NNW 12.7 mph - N/A   Overcast
3:10 AM 19.4 °F 6.6 °F 15.8 °F 86% 30.01 in 10.0 mi NNW 12.7 mph - N/A   Overcast
3:30 AM 19.4 °F 7.9 °F 15.8 °F 86% 30.00 in 10.0 mi North 10.4 mph - N/A   Overcast
3:53 AM 19.4 °F 7.2 °F 15.8 °F 86% 29.99 in 10.0 mi North 11.5 mph - N/A   Overcast
4:10 AM 19.4 °F 7.2 °F 15.8 °F 86% 30.00 in 7.0 mi North 11.5 mph - N/A   Overcast
4:30 AM 19.4 °F 8.6 °F 15.8 °F 86% 30.00 in 7.0 mi North 9.2 mph - N/A   Overcast
4:50 AM 19.4 °F 7.9 °F 15.8 °F 86% 29.99 in 7.0 mi North 10.4 mph - N/A   Overcast
5:10 AM 19.4 °F 6.6 °F 15.8 °F 86% 29.99 in 5.0 mi North 12.7 mph - N/A   Overcast
5:35 AM 19.4 °F 7.9 °F 17.6 °F 93% 29.99 in 5.0 mi North 10.4 mph - N/A   Overcast
5:53 AM 19.4 °F 8.6 °F 17.6 °F 93% 30.00 in 4.0 mi North 9.2 mph - N/A   Overcast
6:12 AM 19.4 °F 8.6 °F 17.6 °F 93% 29.98 in 5.0 mi North 9.2 mph - N/A   Overcast
6:33 AM 19.4 °F 11.5 °F 17.6 °F 93% 29.98 in 4.0 mi NNE 5.8 mph - N/A   Overcast
7:54 AM 19.4 °F 10.4 °F 17.6 °F 93% 29.93 in 4.0 mi ENE 6.9 mph - N/A   Overcast
8:30 AM 19.4 °F - 17.6 °F 93% 29.99 in 3.0 mi Calm Calm - N/A   Overcast
8:50 AM 19.4 °F 12.8 °F 17.6 °F 93% 29.98 in 2.5 mi North 4.6 mph - N/A   Overcast
9:12 AM 19.4 °F 12.8 °F 17.6 °F 93% 29.98 in 1.5 mi North 4.6 mph - N/A   Overcast
9:33 AM 19.4 °F 12.8 °F 17.6 °F 93% 29.98 in 1.2 mi NNW 4.6 mph - N/A   Overcast
9:50 AM 19.4 °F 14.3 °F 19.4 °F 100% 29.96 in 1.8 mi North 3.5 mph - N/A   Overcast
10:10 AM 19.4 °F 12.8 °F 19.4 °F 100% 29.96 in 1.8 mi NNE 4.6 mph - N/A   Overcast
10:30 AM 19.4 °F 12.8 °F 19.4 °F 100% 29.94 in 1.5 mi NNE 4.6 mph - N/A   Overcast
10:53 AM 19.4 °F 11.5 °F 19.4 °F 100% 29.92 in 2.0 mi NE 5.8 mph - N/A   Overcast
11:10 AM 19.4 °F 12.8 °F 19.4 °F 100% 29.91 in 2.0 mi NE 4.6 mph - N/A   Overcast
11:30 AM 19.4 °F 14.3 °F 19.4 °F 100% 29.91 in 2.5 mi North 3.5 mph - N/A   Overcast
11:53 AM 21.2 °F 16.4 °F 19.4 °F 93% 29.90 in 2.5 mi North 3.5 mph - N/A   Overcast
12:10 PM 21.2 °F 14.9 °F 19.4 °F 93% 29.91 in 2.0 mi NNW 4.6 mph - N/A   Overcast
12:33 PM 21.2 °F 13.6 °F 19.4 °F 93% 29.89 in 1.2 mi NNW 5.8 mph - N/A   Overcast
12:50 PM 21.2 °F 12.6 °F 19.4 °F 93% 29.89 in 1.2 mi NW 6.9 mph - N/A   Overcast
1:14 PM 21.2 °F 12.6 °F 19.4 °F 93% 29.87 in 1.2 mi NNW 6.9 mph - N/A   Overcast
1:52 PM 21.2 °F 13.6 °F 21.2 °F 100% 29.84 in 1.2 mi North 5.8 mph - N/A   Overcast
2:55 PM 21.2 °F 13.6 °F 21.2 °F 100% 29.81 in 1.8 mi NNE 5.8 mph - N/A   Overcast
3:12 PM 21.2 °F 10.9 °F 21.2 °F 100% 29.81 in 1.8 mi North 9.2 mph - N/A   Overcast
3:32 PM 21.2 °F 13.6 °F 19.4 °F 93% 29.81 in 2.0 mi NNE 5.8 mph - N/A   Overcast
3:50 PM 21.2 °F 11.7 °F 19.4 °F 93% 29.80 in 2.0 mi NE 8.1 mph - N/A   Overcast
4:10 PM 21.2 °F 11.7 °F 19.4 °F 93% 29.78 in 1.2 mi NNE 8.1 mph - N/A   Overcast
4:33 PM 21.2 °F 12.6 °F 21.2 °F 100% 29.77 in 1.0 mi ENE 6.9 mph - N/A   Overcast
4:50 PM 21.2 °F 13.6 °F 19.4 °F 93% 29.77 in 1.2 mi East 5.8 mph - N/A   Overcast
5:13 PM 21.2 °F 13.6 °F 19.4 °F 93% 29.77 in 1.2 mi East 5.8 mph - N/A   Overcast
5:30 PM 21.2 °F 14.9 °F 19.4 °F 93% 29.77 in 1.2 mi ENE 4.6 mph - N/A   Overcast
5:50 PM 21.2 °F 16.4 °F 19.4 °F 93% 29.77 in 1.5 mi East 3.5 mph - N/A   Overcast
6:10 PM 21.2 °F 13.6 °F 21.2 °F 100% 29.76 in 1.2 mi East 5.8 mph - N/A   Overcast
6:32 PM 21.2 °F 16.4 °F 21.2 °F 100% 29.76 in 1.0 mi ENE 3.5 mph - N/A   Overcast
6:50 PM 21.2 °F 16.4 °F 21.2 °F 100% 29.76 in 0.8 mi East 3.5 mph - N/A   Overcast
7:10 PM 21.2 °F 16.4 °F 21.2 °F 100% 29.75 in 0.8 mi East 3.5 mph - N/A   Overcast
7:30 PM 21.2 °F 16.4 °F 21.2 °F 100% 29.76 in 1.0 mi East 3.5 mph - N/A   Overcast
7:53 PM 21.2 °F 16.4 °F 21.2 °F 100% 29.75 in 0.8 mi ESE 3.5 mph - N/A   Overcast
8:12 PM 21.2 °F - 21.2 °F 100% 29.75 in 1.0 mi Calm Calm - N/A   Overcast
9:53 PM 23.0 °F 17.0 °F 21.2 °F 93% 29.70 in 1.2 mi South 4.6 mph - N/A   Overcast
10:15 PM 23.0 °F 18.4 °F 21.2 °F 93% 29.69 in 1.5 mi South 3.5 mph - N/A   Overcast
10:34 PM 23.0 °F 17.0 °F 23.0 °F 100% 29.68 in 1.5 mi South 4.6 mph - N/A   Overcast
11:15 PM 23.0 °F 18.4 °F 23.0 °F 100% 29.64 in 0.5 mi SSE 3.5 mph - N/A Fog Light Freezing Fog
11:30 PM 23.0 °F 18.4 °F 23.0 °F 100% 29.63 in 0.5 mi SSE 3.5 mph - N/A Fog Light Freezing Fog
11:53 PM 24.8 °F 20.5 °F 23.0 °F 93% 29.62 in 0.5 mi SE 3.5 mph - N/A Fog Light Freezing Fog